DW7898 Weather Reports


Display with metric or nautical units.
time (UTC)temp
F
wind
direction
speed
MPH
gust
MPH
rain 1hr
in
rain 24hr
in
rain mn
in
humidity
%
barometer
mb
20260906113402 92 104 5.0 9.0 0.00 0.00 0.00 34 1022.2
20260906112340 92 159 2.0 9.0 0.00 0.00 0.00 34 1022.3
20260906111355 91 188 3.0 8.0 0.00 0.00 0.00 35 1022.3
20260906110349 91 134 6.0 10.0 0.00 0.00 0.00 35 1022.4
20260906105359 92 171 3.0 9.0 0.00 0.00 0.00 36 1022.6
20260906104357 92 107 4.0 10.0 0.00 0.00 0.00 35 1022.6
20260906103353 92 203 3.0 6.0 0.00 0.00 0.00 35 1022.6
20260906102347 91 130 3.0 7.0 0.00 0.00 0.00 37 1022.6
20260906101349 91 120 3.0 5.0 0.00 0.00 0.00 38 1022.6
20260906100349 90 277 2.0 5.0 0.00 0.00 0.00 38 1022.7
20260906095345 89 314 1.0 4.0 0.00 0.00 0.00 38 1022.7
20260906094400 88 316 0.0 5.0 0.00 0.00 0.00 40 1022.8
20260906093400 88 276 3.0 4.0 0.00 0.00 0.00 41 1022.9
20260906092346 87 277 1.0 5.0 0.00 0.00 0.00 43 1022.9
20260906091348 86 288 0.0 3.0 0.00 0.00 0.00 45 1022.8
20260906090346 86 287 0.0 1.0 0.00 0.00 0.00 46 1022.8
20260906085355 84 287 1.0 2.0 0.00 0.00 0.00 48 1022.8
20260906084354 82 287 0.0 3.0 0.00 0.00 0.00 51 1022.7
20260906083351 81 190 0.0 0.0 0.00 0.00 0.00 52 1022.6
20260906082343 81 95 0.0 0.0 0.00 0.00 0.00 53 1022.6
20260906081356 80 94 0.0 0.0 0.00 0.00 0.00 55 1022.5
20260906080354 79 95 0.0 0.0 0.00 0.00 0.00 57 1022.4
20260906075343 78 94 0.0 0.0 0.00 0.00 0.00 59 1022.5
20260906074342 77 94 0.0 0.0 0.00 0.00 0.00 61 1022.4
20260906073348 77 94 0.0 0.0 0.00 0.00 0.00 62 1022.3
20260906072345 77 97 0.0 0.0 0.00 0.00 0.00 64 1022.3
20260906071344 76 97 0.0 0.0 0.00 0.00 0.00 65 1022.3
20260906070345 74 97 0.0 0.0 0.00 0.00 0.00 67 1022.3
20260906065402 73 97 0.0 0.0 0.00 0.00 0.00 68 1022.1
20260906064359 73 97 0.0 0.0 0.00 0.00 0.00 69 1022.1
20260906063357 73 97 0.0 0.0 0.00 0.00 0.00 70 1022.1
20260906061357 72 100 0.0 0.0 0.00 0.00 0.00 71 1022.0
20260906060357 72 100 0.0 0.0 0.00 0.00 0.00 70 1021.8
20260906055356 71 100 0.0 3.0 0.00 0.00 0.00 71 1021.8
20260906054357 71 101 0.0 2.0 0.00 0.00 0.00 71 1021.6
20260906053352 71 102 1.0 4.0 0.00 0.00 0.00 70 1021.6
20260906052346 72 110 2.0 4.0 0.00 0.00 0.00 70 1021.5
20260906051344 71 118 0.0 2.0 0.00 0.00 0.00 69 1021.4
20260906050343 72 118 0.0 3.0 0.00 0.00 0.00 69 1021.4
20260906045341 72 119 2.0 3.0 0.00 0.00 0.00 68 1021.3
20260906044402 72 121 1.0 3.0 0.00 0.00 0.00 67 1021.3
20260906043403 73 121 0.0 0.0 0.00 0.00 0.00 67 1021.4
20260906042359 73 121 0.0 0.0 0.00 0.00 0.00 66 1021.5
20260906041400 73 121 0.0 0.0 0.00 0.00 0.00 66 1021.4
20260906040401 73 121 0.0 0.0 0.00 0.00 0.00 66 1021.5
20260906035353 73 121 0.0 0.0 0.00 0.00 0.00 66 1021.5
20260906034348 73 121 0.0 0.0 0.00 0.00 0.00 66 1021.6
20260906033344 73 121 0.0 2.0 0.00 0.00 0.00 65 1021.6
20260906032343 73 121 1.0 2.0 0.00 0.00 0.00 65 1021.7
20260906031344 74 121 0.0 0.0 0.00 0.00 0.00 66 1021.8
20260906030347 74 121 0.0 0.0 0.00 0.00 0.00 65 1021.7
20260906025345 74 121 0.0 0.0 0.00 0.00 0.00 64 1021.8
20260906024345 74 121 0.0 0.0 0.00 0.00 0.00 64 1021.8
20260906023344 74 121 0.0 0.0 0.00 0.00 0.00 64 1021.8
20260906022400 75 121 0.0 0.0 0.00 0.00 0.00 62 1021.8
20260906021358 75 121 0.0 0.0 0.00 0.00 0.00 62 1021.9
20260906020341 75 121 0.0 0.0 0.00 0.00 0.00 62 1021.9
20260906015359 75 121 0.0 0.0 0.00 0.00 0.00 61 1022.1
20260906014342 75 121 0.0 0.0 0.00 0.00 0.00 61 1022.0
20260906013345 76 121 0.0 1.0 0.00 0.00 0.00 62 1022.1
20260906012359 76 121 0.0 2.0 0.00 0.00 0.00 61 1022.3
20260906011356 76 121 0.0 2.0 0.00 0.00 0.00 61 1022.2
20260906010357 76 121 0.0 1.0 0.00 0.00 0.00 61 1022.3
20260906005347 76 121 0.0 1.0 0.00 0.00 0.00 61 1022.3
20260906004350 76 121 1.0 2.0 0.00 0.00 0.00 62 1022.3
20260906003350 77 121 0.0 0.0 0.00 0.00 0.00 64 1022.4
20260906002343 77 121 0.0 0.0 0.00 0.00 0.00 65 1022.6
20260906001346 77 121 0.0 0.0 0.00 0.00 0.00 64 1022.7
20260906000348 77 121 0.0 0.0 0.00 0.00 0.00 64 1022.6
20260905235348 77 121 0.0 0.0 0.00 0.00 0.00 63 1022.6
20260905234347 77 121 0.0 2.0 0.00 0.00 0.00 62 1022.8
20260905233344 78 121 0.0 2.0 0.00 0.00 0.00 63 1022.8
20260905232358 78 121 0.0 2.0 0.00 0.00 0.00 65 1022.9
20260905231352 78 121 0.0 2.0 0.00 0.00 0.00 64 1023.1
20260905230353 79 121 0.0 1.0 0.00 0.00 0.00 63 1023.1
20260905225348 79 121 0.0 0.0 0.00 0.00 0.00 62 1023.1
20260905224343 79 121 1.0 2.0 0.00 0.00 0.00 61 1023.1
20260905223343 79 121 0.0 1.0 0.00 0.00 0.00 60 1023.2
20260905222355 80 121 0.0 2.0 0.00 0.00 0.00 60 1023.2
20260905221355 80 121 0.0 2.0 0.00 0.00 0.00 60 1023.0
20260905220357 80 121 0.0 1.0 0.00 0.00 0.00 60 1023.1
20260905215349 80 121 0.0 2.0 0.00 0.00 0.00 60 1023.2
20260905214348 80 121 1.0 4.0 0.00 0.00 0.00 60 1023.2
20260905213350 80 121 3.0 4.0 0.00 0.00 0.00 59 1023.2
20260905212342 81 121 1.0 3.0 0.00 0.00 0.00 58 1023.2
20260905211342 81 121 2.0 4.0 0.00 0.00 0.00 57 1023.3
20260905210345 81 121 1.0 3.0 0.00 0.00 0.00 56 1023.4
20260905205402 81 121 2.0 4.0 0.00 0.00 0.00 55 1023.4
20260905204358 82 121 2.0 3.0 0.00 0.00 0.00 53 1023.4
20260905203353 82 121 2.0 3.0 0.00 0.00 0.00 53 1023.4
20260905202402 82 121 2.0 3.0 0.00 0.00 0.00 52 1023.5
20260905201356 83 121 0.0 0.0 0.00 0.00 0.00 52 1023.5
20260905200353 83 121 0.0 2.0 0.00 0.00 0.00 51 1023.4
20260905195358 83 121 0.0 4.0 0.00 0.00 0.00 49 1023.2
20260905194351 83 117 0.0 2.0 0.00 0.00 0.00 50 1023.3
20260905193344 83 117 1.0 4.0 0.00 0.00 0.00 51 1023.3
20260905192350 84 117 3.0 4.0 0.00 0.00 0.00 52 1023.3
20260905191351 84 118 0.0 2.0 0.00 0.00 0.00 59 1023.2
20260905190348 85 118 0.0 2.0 0.00 0.00 0.00 59 1023.2
20260905185354 85 118 0.0 1.0 0.00 0.00 0.00 58 1023.2
20260905184345 85 118 1.0 2.0 0.00 0.00 0.00 59 1023.1
20260905183403 85 118 3.0 4.0 0.00 0.00 0.00 59 1023.1
20260905182350 85 116 1.0 4.0 0.00 0.00 0.00 59 1023.0
20260905181402 85 115 2.0 5.0 0.00 0.00 0.00 58 1022.9
20260905180357 86 132 3.0 6.0 0.00 0.00 0.00 57 1022.8
20260905175351 86 137 3.0 6.0 0.00 0.00 0.00 54 1023.0
20260905174344 87 134 3.0 6.0 0.00 0.00 0.00 51 1022.9
20260905173401 87 154 3.0 6.0 0.00 0.00 0.00 51 1023.0
20260905172355 87 139 4.0 8.0 0.00 0.00 0.00 50 1022.9
20260905171346 87 123 5.0 9.0 0.00 0.00 0.00 49 1022.8
20260905165344 88 124 4.0 9.0 0.00 0.00 0.00 45 1022.8
20260905164355 89 130 5.0 11.0 0.00 0.00 0.00 41 1022.8
20260905163350 89 199 4.0 12.0 0.00 0.00 0.00 36 1022.8
20260905162347 90 111 5.0 10.0 0.00 0.00 0.00 35 1022.7
20260905161357 90 88 4.0 11.0 0.00 0.00 0.00 34 1022.8
20260905160348 90 135 2.0 10.0 0.00 0.00 0.00 36 1022.8
20260905155353 90 137 5.0 11.0 0.00 0.00 0.00 34 1022.7
20260905154402 89 124 7.0 12.0 0.00 0.00 0.00 34 1022.7
20260905153351 90 85 5.0 11.0 0.00 0.00 0.00 35 1022.8
20260905152343 90 108 5.0 14.0 0.00 0.00 0.00 33 1022.8
20260905151400 90 154 4.0 14.0 0.00 0.00 0.00 34 1023.0
20260905150348 91 221 2.0 11.0 0.00 0.00 0.00 35 1023.0
20260905145404 92 106 6.0 11.0 0.00 0.00 0.00 35 1023.0
20260905144352 91 117 2.0 11.0 0.00 0.00 0.00 36 1023.0
20260905143349 92 131 5.0 10.0 0.00 0.00 0.00 34 1023.2
20260905142402 92 88 5.0 13.0 0.00 0.00 0.00 33 1023.2
20260905141358 92 72 3.0 12.0 0.00 0.00 0.00 32 1023.1
20260905140359 93 147 5.0 12.0 0.00 0.00 0.00 32 1023.1
20260905135348 92 144 5.0 12.0 0.00 0.00 0.00 32 1023.0
20260905134342 93 129 4.0 13.0 0.00 0.00 0.00 31 1023.2
20260905133344 93 93 7.0 13.0 0.00 0.00 0.00 31 1023.3
20260905132401 93 90 3.0 12.0 0.00 0.00 0.00 30 1023.2
20260905131349 93 94 6.0 12.0 0.00 0.00 0.00 30 1023.3
20260905130351 93 130 7.0 13.0 0.00 0.00 0.00 29 1023.4
20260905125346 93 126 5.0 14.0 0.00 0.00 0.00 29 1023.4
20260905124359 94 108 5.0 13.0 0.00 0.00 0.00 28 1023.3
20260905123351 95 94 2.0 8.0 0.00 0.00 0.00 29 1023.4
20260905122342 94 105 5.0 13.0 0.00 0.00 0.00 29 1023.3
20260905121351 94 177 4.0 10.0 0.00 0.00 0.00 29 1023.5
20260905120350 94 229 4.0 11.0 0.00 0.00 0.00 29 1023.4
20260905115401 94 139 6.0 11.0 0.00 0.00 0.00 30 1023.5
20260905114352 94 141 4.0 10.0 0.00 0.00 0.00 29 1023.5